Location: Newark
(44.3681°N, 100.3364°W)
Time: 09:45:26
(UTC+00:00)

Explorer 7 - Pass Details

Date: 25 February 2020
Orbit: 485 x 679 km, 50.3° (Epoch: 28 March)

Event Time Altitude Azimuth Distance (km) Brightness Sun altitude
Rises 00:45:24 0° 288° (WNW) 2,742 11.7 -4.9°
Reaches altitude 10° 00:48:18 10° 268° (W) 1,801 11.3 -5.4°
Maximum altitude 00:50:58 17° 228° (SW) 1,380 9.7 -5.9°
Drops below altitude 10° 00:53:32 10° 186° (S) 1,728 9.5 -6.3°
Sets 00:56:15 0° 166° (SSE) 2,579 10.2 -6.8°
